Location: Unspecified
(0.0000°N, 0.0000°E)
Time: 22:10:28
(UTC+00:00)

Alouette 1 - Pass Details

Date: 01 November 2021
Orbit: 985 x 1019 km, 80.5° (Epoch: 07 December)

Event Time Altitude Azimuth Distance (km) Brightness Sun altitude
Rises 18:22:07 0° 333° (NNW) 3,728 9.2 -9.3°
Reaches altitude 10° 18:25:01 10° 322° (NW) 2,775 8.7 -10.0°
Maximum altitude 18:30:21 28° 265° (W) 1,771 8.3 -11.3°
Drops below altitude 10° 18:35:40 10° 207° (SSW) 2,763 9.0 -12.6°
Sets 18:38:35 0° 196° (SSW) 3,709 9.5 -13.3°
